CW2972 Weather Reports


time (UTC)temp
C
wind
direction
speed
KPH
gust
KPH
rain 1hr
cm
rain 24hr
cm
rain mn
cm
humidity
%
barometer
mb
20220813163824 27 334 3.2 14.5 0.00 0.00 0.00 62 1020.3
20220813163646 27 337 1.6 14.5 0.00 0.00 0.00 60 1020.3
20220813163424 27 335 1.6 14.5 0.00 0.00 0.00 60 1020.4
20220813163203 27 327 1.6 14.5 0.00 0.00 0.00 60 1020.3
20220813163045 27 318 1.6 14.5 0.00 0.00 0.00 61 1020.3
20220813162824 27 100 1.6 4.8 0.00 0.00 0.00 63 1020.4
20220813162603 27 51 3.2 4.8 0.00 0.00 0.00 61 1020.3
20220813162403 27 19 3.2 8.0 0.00 0.00 0.00 66 1020.4
20220813162224 27 349 3.2 8.0 0.00 0.00 0.00 63 1020.4
20220813162003 26 340 3.2 8.0 0.00 0.00 0.00 61 1020.4
20220813161803 26 333 3.2 8.0 0.00 0.00 0.00 61 1020.5
20220813161603 26 330 3.2 8.0 0.00 0.00 0.00 62 1020.5
20220813161425 26 328 3.2 8.0 0.00 0.00 0.00 61 1020.5
20220813161224 26 329 3.2 8.0 0.00 0.00 0.00 62 1020.6
20220813161004 26 331 3.2 9.7 0.00 0.00 0.00 64 1020.6
20220813160824 26 327 3.2 9.7 0.00 0.00 0.00 62 1020.6
20220813160624 26 329 3.2 9.7 0.00 0.00 0.00 61 1020.7
20220813160445 26 343 3.2 9.7 0.00 0.00 0.00 62 1020.7
20220813160224 26 37 3.2 9.7 0.00 0.00 0.00 63 1020.7
20220813160024 26 69 3.2 6.4 0.00 0.00 0.00 63 1020.7
20220813155803 26 91 3.2 6.4 0.00 0.00 0.00 64 1020.8
20220813155624 26 96 3.2 6.4 0.00 0.00 0.00 66 1020.7
20220813155424 26 99 3.2 6.4 0.00 0.00 0.00 66 1020.7
20220813155203 26 102 3.2 4.8 0.00 0.00 0.00 65 1020.7
20220813155025 26 103 3.2 4.8 0.00 0.00 0.00 66 1020.7
20220813154803 26 107 3.2 4.8 0.00 0.00 0.00 63 1020.8
20220813154603 26 77 3.2 8.0 0.00 0.00 0.00 66 1020.8
20220813154403 26 9 3.2 9.7 0.00 0.00 0.00 64 1020.8
20220813154203 26 351 3.2 9.7 0.00 0.00 0.00 65 1020.9
20220813154003 26 346 3.2 9.7 0.00 0.00 0.00 65 1020.9
20220813153803 26 348 3.2 9.7 0.00 0.00 0.00 63 1020.9
20220813153603 26 348 3.2 9.7 0.00 0.00 0.00 65 1020.9
20220813153403 26 14 3.2 6.4 0.00 0.00 0.00 63 1020.9
20220813153224 26 36 3.2 11.3 0.00 0.00 0.00 65 1020.9
20220813153004 26 51 3.2 11.3 0.00 0.00 0.00 64 1020.9
20220813152845 26 64 3.2 11.3 0.00 0.00 0.00 65 1020.9
20220813152603 26 95 3.2 11.3 0.00 0.00 0.00 65 1020.9
20220813152403 25 77 3.2 11.3 0.00 0.00 0.00 67 1020.9
20220813152203 25 68 3.2 9.7 0.00 0.00 0.00 67 1020.9
20220813152003 25 23 3.2 12.9 0.00 0.00 0.00 65 1020.8
20220813151803 25 352 3.2 12.9 0.00 0.00 0.00 66 1020.8
20220813151624 25 339 3.2 12.9 0.00 0.00 0.00 67 1020.9
20220813151403 25 333 3.2 12.9 0.00 0.00 0.00 65 1020.9
20220813151203 25 336 1.6 12.9 0.00 0.00 0.00 64 1020.9
20220813151003 25 357 1.6 8.0 0.00 0.00 0.00 66 1020.9
20220813150804 25 60 1.6 8.0 0.00 0.00 0.00 64 1020.9
20220813150645 25 95 1.6 6.4 0.00 0.00 0.00 65 1020.9
20220813150405 25 113 1.6 4.8 0.00 0.00 0.00 67 1020.9
20220813150246 25 114 1.6 4.8 0.00 0.00 0.00 68 1020.9
20220813150024 25 110 1.6 4.8 0.00 0.00 0.00 68 1020.9
20220813145803 25 109 1.6 4.8 0.00 0.00 0.00 69 1020.9
20220813145624 25 107 1.6 4.8 0.00 0.00 0.00 67 1020.9
20220813145403 25 105 1.6 4.8 0.00 0.00 0.00 68 1020.9
20220813145203 25 71 1.6 8.0 0.00 0.00 0.00 70 1020.9
20220813145003 24 66 3.2 8.0 0.00 0.00 0.00 69 1020.9
20220813144803 24 355 3.2 8.0 0.00 0.00 0.00 71 1020.9
20220813144646 24 331 3.2 11.3 0.00 0.00 0.00 71 1020.9
20220813144403 23 324 3.2 11.3 0.00 0.00 0.00 69 1020.8
20220813144245 23 326 3.2 11.3 0.00 0.00 0.00 69 1020.9
20220813144024 23 330 1.6 11.3 0.00 0.00 0.00 70 1020.9
20220813143803 23 331 1.6 11.3 0.00 0.00 0.00 68 1020.9
20220813143603 23 355 1.6 9.7 0.00 0.00 0.00 69 1020.9
20220813143445 23 21 1.6 9.7 0.00 0.00 0.00 72 1020.8
20220813143224 23 28 1.6 6.4 0.00 0.00 0.00 71 1020.9
20220813143003 23 83 1.6 3.2 0.00 0.00 0.00 71 1020.8
20220813142824 23 57 1.6 3.2 0.00 0.00 0.00 71 1020.8
20220813142623 23 64 1.6 4.8 0.00 0.00 0.00 72 1020.8
20220813142425 23 77 1.6 4.8 0.00 0.00 0.00 71 1020.8
20220813142203 22 61 3.2 4.8 0.00 0.00 0.00 72 1020.9
20220813142003 22 28 3.2 6.4 0.00 0.00 0.00 72 1020.8
20220813141845 22 4 3.2 8.0 0.00 0.00 0.00 72 1020.8
20220813141603 22 342 3.2 9.7 0.00 0.00 0.00 72 1020.8
20220813141403 22 333 3.2 9.7 0.00 0.00 0.00 73 1020.8
20220813141245 22 327 3.2 9.7 0.00 0.00 0.00 73 1020.8
20220813141045 22 329 3.2 9.7 0.00 0.00 0.00 73 1020.8
20220813140824 22 334 3.2 9.7 0.00 0.00 0.00 73 1020.8
20220813140645 22 331 3.2 9.7 0.00 0.00 0.00 73 1020.7
20220813140404 22 336 3.2 8.0 0.00 0.00 0.00 72 1020.7
20220813140203 22 346 3.2 9.7 0.00 0.00 0.00 72 1020.7
20220813140045 22 358 1.6 9.7 0.00 0.00 0.00 74 1020.7
20220813135845 22 358 1.6 9.7 0.00 0.00 0.00 73 1020.8
20220813135624 22 7 1.6 9.7 0.00 0.00 0.00 74 1020.8
20220813135403 22 360 1.6 9.7 0.00 0.00 0.00 74 1020.8
20220813135203 21 355 1.6 6.4 0.00 0.00 0.00 75 1020.8
20220813135003 21 338 1.6 6.4 0.00 0.00 0.00 76 1020.8
20220813134803 21 329 1.6 6.4 0.00 0.00 0.00 76 1020.9
20220813134624 21 329 1.6 6.4 0.00 0.00 0.00 77 1020.9
20220813134403 21 333 1.6 6.4 0.00 0.00 0.00 77 1021.0
20220813134225 20 333 1.6 6.4 0.00 0.00 0.00 76 1020.9
20220813134003 20 332 1.6 6.4 0.00 0.00 0.00 76 1021.0
20220813133845 20 338 1.6 6.4 0.00 0.00 0.00 76 1021.0
20220813133624 20 340 1.6 4.8 0.00 0.00 0.00 78 1020.9
20220813133403 20 338 1.6 4.8 0.00 0.00 0.00 77 1020.9
20220813133224 20 335 1.6 4.8 0.00 0.00 0.00 78 1020.9
20220813133003 20 336 1.6 4.8 0.00 0.00 0.00 78 1020.9
20220813132824 20 322 1.6 4.8 0.00 0.00 0.00 78 1020.9
20220813132624 20 322 1.6 4.8 0.00 0.00 0.00 78 1020.9
20220813132424 20 325 1.6 4.8 0.00 0.00 0.00 78 1020.9
20220813132245 19 328 1.6 4.8 0.00 0.00 0.00 79 1020.9
20220813132003 19 334 1.6 8.0 0.00 0.00 0.00 80 1020.9
20220813131845 19 338 1.6 8.0 0.00 0.00 0.00 79 1020.9
20220813131603 18 344 1.6 8.0 0.00 0.00 0.00 80 1020.9
20220813131424 18 346 1.6 8.0 0.00 0.00 0.00 81 1020.8
20220813131203 18 340 1.6 4.8 0.00 0.00 0.00 82 1020.9
20220813131024 18 340 3.2 4.8 0.00 0.00 0.00 82 1020.9
20220813130803 18 341 3.2 4.8 0.00 0.00 0.00 83 1020.8
20220813130603 18 342 3.2 6.4 0.00 0.00 0.00 84 1020.8
20220813130424 18 339 3.2 6.4 0.00 0.00 0.00 83 1020.8
20220813130224 18 342 1.6 6.4 0.00 0.00 0.00 83 1020.8
20220813130024 18 340 1.6 6.4 0.00 0.00 0.00 84 1020.8
20220813125824 17 338 1.6 6.4 0.00 0.00 0.00 83 1020.8
20220813125624 17 336 1.6 6.4 0.00 0.00 0.00 84 1020.8
20220813125445 17 334 1.6 4.8 0.00 0.00 0.00 84 1020.8
20220813125203 17 329 1.6 4.8 0.00 0.00 0.00 85 1020.8
20220813125003 17 330 1.6 4.8 0.00 0.00 0.00 85 1020.8
20220813124824 17 328 1.6 4.8 0.00 0.00 0.00 85 1020.8
20220813124624 17 328 1.6 4.8 0.00 0.00 0.00 86 1020.8
20220813124445 17 325 1.6 4.8 0.00 0.00 0.00 86 1020.8
20220813124203 17 327 1.6 4.8 0.00 0.00 0.00 86 1020.8
20220813124045 17 329 0.0 4.8 0.00 0.00 0.00 87 1020.8
20220813123824 16 328 0.0 4.8 0.00 0.00 0.00 88 1020.8
20220813123624 16 329 0.0 4.8 0.00 0.00 0.00 88 1020.8
20220813123425 16 341 0.0 3.2 0.00 0.00 0.00 89 1020.7
20220813123224 16 346 0.0 3.2 0.00 0.00 0.00 90 1020.8
20220813123003 16 0 0.0 0.0 0.00 0.00 0.00 91 1020.8
20220813122803 16 0 0.0 0.0 0.00 0.00 0.00 91 1020.8
20220813122645 16 0 0.0 0.0 0.00 0.00 0.00 92 1020.7
20220813122445 15 0 0.0 0.0 0.00 0.00 0.00 92 1020.8
20220813122203 15 0 0.0 0.0 0.00 0.00 0.00 92 1020.8
20220813122003 15 0 0.0 0.0 0.00 0.00 0.00 93 1020.8
20220813121824 15 0 0.0 0.0 0.00 0.00 0.00 93 1020.8
20220813121624 15 0 0.0 0.0 0.00 0.00 0.00 94 1020.8
20220813121403 15 0 0.0 0.0 0.00 0.00 0.00 94 1020.8
20220813121204 15 0 0.0 0.0 0.00 0.00 0.00 94 1020.8
20220813121004 15 0 0.0 0.0 0.00 0.00 0.00 94 1020.8
20220813120803 15 0 0.0 0.0 0.00 0.00 0.00 94 1020.8
20220813120603 15 0 0.0 0.0 0.00 0.00 0.00 94 1020.8
20220813120403 15 0 0.0 0.0 0.00 0.00 0.00 94 1020.8
20220813120245 14 0 0.0 0.0 0.00 0.00 0.00 94 1020.7
20220813120003 14 0 0.0 0.0 0.00 0.00 0.00 94 1020.7
20220813115803 14 0 0.0 0.0 0.00 0.00 0.00 94 1020.7
20220813115603 14 0 0.0 0.0 0.00 0.00 0.00 94 1020.7
20220813115403 14 0 0.0 0.0 0.00 0.00 0.00 94 1020.6
20220813115224 14 0 0.0 0.0 0.00 0.00 0.00 94 1020.6
20220813115046 14 0 0.0 0.0 0.00 0.00 0.00 94 1020.6
20220813114824 14 0 0.0 0.0 0.00 0.00 0.00 94 1020.7
20220813114645 14 0 0.0 0.0 0.00 0.00 0.00 94 1020.7
20220813114445 14 0 0.0 0.0 0.00 0.00 0.00 94 1020.7
20220813114224 13 0 0.0 0.0 0.00 0.00 0.00 94 1020.6
20220813114045 13 0 0.0 0.0 0.00 0.00 0.00 94 1020.6
20220813113824 13 0 0.0 0.0 0.00 0.00 0.00 94 1020.6
20220813113603 13 0 0.0 0.0 0.00 0.00 0.00 94 1020.6
20220813113403 13 0 0.0 0.0 0.00 0.00 0.00 94 1020.6
20220813113203 13 0 0.0 0.0 0.00 0.00 0.00 94 1020.6
20220813113003 13 0 0.0 0.0 0.00 0.00 0.00 94 1020.6
20220813112804 13 0 0.0 0.0 0.00 0.00 0.00 94 1020.6
20220813112625 13 0 0.0 0.0 0.00 0.00 0.00 94 1020.6
20220813112403 13 0 0.0 0.0 0.00 0.00 0.00 93 1020.6
20220813112224 13 0 0.0 0.0 0.00 0.00 0.00 93 1020.5
20220813112003 13 0 0.0 0.0 0.00 0.00 0.00 93 1020.5
20220813111824 13 0 0.0 0.0 0.00 0.00 0.00 93 1020.5
20220813111624 13 0 0.0 0.0 0.00 0.00 0.00 93 1020.5
20220813111403 13 0 0.0 0.0 0.00 0.00 0.00 93 1020.5
20220813111224 14 0 0.0 0.0 0.00 0.00 0.00 93 1020.5
20220813111045 14 0 0.0 0.0 0.00 0.00 0.00 93 1020.5
20220813110803 14 0 0.0 0.0 0.00 0.00 0.00 93 1020.5
20220813110604 14 0 0.0 0.0 0.00 0.00 0.00 93 1020.4
20220813110424 14 0 0.0 0.0 0.00 0.00 0.00 93 1020.4
20220813110203 14 0 0.0 0.0 0.00 0.00 0.00 94 1020.4
20220813110003 14 0 0.0 0.0 0.00 0.00 0.00 94 1020.3
20220813105824 13 0 0.0 0.0 0.00 0.00 0.00 93 1020.3
20220813105603 14 0 0.0 0.0 0.00 0.00 0.00 93 1020.3
20220813105403 14 0 0.0 0.0 0.00 0.00 0.00 94 1020.2
20220813105245 13 0 0.0 0.0 0.00 0.00 0.00 93 1020.2
20220813105003 13 0 0.0 0.0 0.00 0.00 0.00 93 1020.2
20220813104824 13 0 0.0 0.0 0.00 0.00 0.00 93 1020.1
20220813104603 13 0 0.0 0.0 0.00 0.00 0.00 93 1020.1
20220813104404 13 0 0.0 0.0 0.00 0.00 0.00 93 1020.1
20220813104203 13 0 0.0 0.0 0.00 0.00 0.00 93 1020.1
20220813104024 13 0 0.0 0.0 0.00 0.00 0.00 93 1020.1
20220813103824 14 0 0.0 0.0 0.00 0.00 0.00 93 1020.2
20220813103603 14 0 0.0 0.0 0.00 0.00 0.00 92 1020.1
20220813103424 14 0 0.0 0.0 0.00 0.00 0.00 92 1020.1
20220813103245 14 0 0.0 0.0 0.00 0.00 0.00 92 1020.1
20220813103024 14 0 0.0 0.0 0.00 0.00 0.00 92 1020.1
20220813102824 14 0 0.0 0.0 0.00 0.00 0.00 92 1020.0
20220813102603 14 0 0.0 0.0 0.00 0.00 0.00 92 1020.1
20220813102424 14 0 0.0 0.0 0.00 0.00 0.00 93 1020.1
20220813102225 14 0 0.0 0.0 0.00 0.00 0.00 93 1020.1
20220813102046 14 0 0.0 0.0 0.00 0.00 0.00 93 1020.1
20220813101804 14 0 0.0 0.0 0.00 0.00 0.00 93 1020.1
20220813101603 14 0 0.0 0.0 0.00 0.00 0.00 93 1020.0
20220813101445 14 0 0.0 0.0 0.00 0.00 0.00 93 1020.0
20220813101203 14 0 0.0 0.0 0.00 0.00 0.00 93 1020.0
20220813101003 14 0 0.0 0.0 0.00 0.00 0.00 92 1019.9
20220813100824 14 0 0.0 0.0 0.00 0.00 0.00 92 1019.9
20220813100624 14 0 0.0 0.0 0.00 0.00 0.00 92 1019.9
20220813100445 14 0 0.0 0.0 0.00 0.00 0.00 92 1019.9
20220813100245 14 0 0.0 0.0 0.00 0.00 0.00 92 1019.9
20220813100003 14 0 0.0 0.0 0.00 0.00 0.00 92 1019.9
20220813095803 14 0 0.0 0.0 0.00 0.00 0.00 92 1019.8
20220813095603 15 0 0.0 0.0 0.00 0.00 0.00 92 1019.8
20220813095445 15 0 0.0 0.0 0.00 0.00 0.00 92 1019.8
20220813095203 15 0 0.0 0.0 0.00 0.00 0.00 92 1019.8
20220813095003 15 0 0.0 0.0 0.00 0.00 0.00 92 1019.9
20220813094845 15 0 0.0 0.0 0.00 0.00 0.00 92 1019.9
20220813094645 15 0 0.0 0.0 0.00 0.00 0.00 92 1019.9
20220813094403 15 0 0.0 0.0 0.00 0.00 0.00 92 1019.9
20220813094224 15 0 0.0 0.0 0.00 0.00 0.00 92 1019.9
20220813094003 15 0 0.0 0.0 0.00 0.00 0.00 92 1020.0
20220813093846 15 0 0.0 0.0 0.00 0.00 0.00 92 1020.0
20220813093646 15 0 0.0 0.0 0.00 0.00 0.00 92 1020.0
20220813093403 15 0 0.0 0.0 0.00 0.00 0.00 92 1020.0
20220813093224 15 0 0.0 0.0 0.00 0.00 0.00 92 1020.0
20220813093003 15 0 0.0 0.0 0.00 0.00 0.00 92 1020.0
20220813092803 15 0 0.0 0.0 0.00 0.00 0.00 92 1020.1
20220813092645 15 0 0.0 0.0 0.00 0.00 0.00 92 1020.0
20220813092424 15 0 0.0 0.0 0.00 0.00 0.00 92 1020.0
20220813092203 15 0 0.0 0.0 0.00 0.00 0.00 92 1020.0
20220813092024 15 0 0.0 0.0 0.00 0.00 0.00 92 1020.0
20220813091803 15 0 0.0 0.0 0.00 0.00 0.00 91 1020.0
20220813091625 15 0 0.0 0.0 0.00 0.00 0.00 91 1019.9
20220813091424 15 0 0.0 0.0 0.00 0.00 0.00 91 1020.0
20220813091203 15 0 0.0 0.0 0.00 0.00 0.00 91 1020.0
20220813091024 15 0 0.0 0.0 0.00 0.00 0.00 91 1020.0
20220813090803 15 0 0.0 0.0 0.00 0.00 0.00 91 1020.0
20220813090603 15 0 0.0 0.0 0.00 0.00 0.00 91 1020.0
20220813090403 15 0 0.0 0.0 0.00 0.00 0.00 91 1020.0
20220813090203 15 0 0.0 0.0 0.00 0.00 0.00 91 1020.0
20220813090003 15 0 0.0 0.0 0.00 0.00 0.00 91 1020.0
20220813085845 15 0 0.0 0.0 0.00 0.00 0.00 91 1020.0
20220813085645 15 0 0.0 0.0 0.00 0.00 0.00 91 1020.0
20220813085425 15 0 0.0 0.0 0.00 0.00 0.00 90 1020.0
20220813085203 15 0 0.0 0.0 0.00 0.00 0.00 90 1019.9
20220813085004 15 0 0.0 0.0 0.00 0.00 0.00 90 1019.9
20220813084846 15 0 0.0 0.0 0.00 0.00 0.00 90 1019.9
20220813084624 15 0 0.0 0.0 0.00 0.00 0.00 90 1019.9
20220813084445 15 0 0.0 0.0 0.00 0.00 0.00 90 1019.9
20220813084203 15 0 0.0 0.0 0.00 0.00 0.00 90 1019.8
20220813084024 15 0 0.0 0.0 0.00 0.00 0.00 90 1019.8
20220813083824 15 0 0.0 0.0 0.00 0.00 0.00 90 1019.8
20220813083603 15 0 0.0 0.0 0.00 0.00 0.00 90 1019.8
20220813083424 15 0 0.0 0.0 0.00 0.00 0.00 90 1019.8
20220813083204 15 0 0.0 0.0 0.00 0.00 0.00 90 1019.8
20220813083004 15 0 0.0 0.0 0.00 0.00 0.00 91 1019.8
20220813082803 15 0 0.0 0.0 0.00 0.00 0.00 91 1019.8
20220813082603 15 0 0.0 0.0 0.00 0.00 0.00 91 1019.9
20220813082403 15 0 0.0 0.0 0.00 0.00 0.00 91 1019.9
20220813082224 15 0 0.0 0.0 0.00 0.00 0.00 91 1019.9
20220813082003 15 0 0.0 0.0 0.00 0.00 0.00 91 1019.8
20220813081824 15 0 0.0 0.0 0.00 0.00 0.00 92 1019.8
20220813081624 15 0 0.0 0.0 0.00 0.00 0.00 92 1019.8
20220813081424 15 0 0.0 0.0 0.00 0.00 0.00 92 1019.7
20220813081203 15 0 0.0 0.0 0.00 0.00 0.00 91 1019.7
20220813081025 15 0 0.0 0.0 0.00 0.00 0.00 91 1019.7
20220813080846 15 0 0.0 0.0 0.00 0.00 0.00 91 1019.6
20220813080624 15 0 0.0 0.0 0.00 0.00 0.00 91 1019.6
20220813080445 15 0 0.0 0.0 0.00 0.00 0.00 92 1019.6
20220813080224 15 0 0.0 0.0 0.00 0.00 0.00 92 1019.6
20220813080024 15 0 0.0 0.0 0.00 0.00 0.00 92 1019.6
20220813075803 15 0 0.0 0.0 0.00 0.00 0.00 92 1019.6
20220813075645 15 0 0.0 0.0 0.00 0.00 0.00 92 1019.6
20220813075403 15 0 0.0 0.0 0.00 0.00 0.00 91 1019.6
20220813075224 15 0 0.0 0.0 0.00 0.00 0.00 91 1019.6
20220813075003 15 0 0.0 0.0 0.00 0.00 0.00 92 1019.6
20220813074825 15 0 0.0 0.0 0.00 0.00 0.00 92 1019.6
20220813074604 15 0 0.0 0.0 0.00 0.00 0.00 92 1019.6
20220813074403 15 0 0.0 0.0 0.00 0.00 0.00 92 1019.7
20220813074203 15 0 0.0 0.0 0.00 0.00 0.00 92 1019.7
20220813074003 15 0 0.0 0.0 0.00 0.00 0.00 92 1019.8
20220813073803 15 0 0.0 0.0 0.00 0.00 0.00 91 1019.7
20220813073624 15 0 0.0 0.0 0.00 0.00 0.00 91 1019.7
20220813073403 15 0 0.0 0.0 0.00 0.00 0.00 91 1019.6
20220813073203 15 0 0.0 0.0 0.00 0.00 0.00 91 1019.6
20220813073024 15 0 0.0 0.0 0.00 0.00 0.00 91 1019.6
20220813072803 15 0 0.0 0.0 0.00 0.00 0.00 91 1019.5
20220813072625 16 0 0.0 0.0 0.00 0.00 0.00 91 1019.5
20220813072403 16 0 0.0 0.0 0.00 0.00 0.00 91 1019.5
20220813072203 16 0 0.0 0.0 0.00 0.00 0.00 91 1019.5
20220813072046 16 0 0.0 0.0 0.00 0.00 0.00 91 1019.5
20220813071824 16 0 0.0 0.0 0.00 0.00 0.00 91 1019.4
20220813071603 16 0 0.0 0.0 0.00 0.00 0.00 91 1019.4
20220813071403 16 0 0.0 0.0 0.00 0.00 0.00 91 1019.5
20220813071245 16 0 0.0 0.0 0.00 0.00 0.00 91 1019.5
20220813071024 16 0 0.0 0.0 0.00 0.00 0.00 91 1019.5
20220813070803 16 0 0.0 0.0 0.00 0.00 0.00 90 1019.5
20220813070645 16 0 0.0 0.0 0.00 0.00 0.00 90 1019.5
20220813070425 16 0 0.0 0.0 0.00 0.00 0.00 90 1019.5
20220813070246 16 0 0.0 0.0 0.00 0.00 0.00 90 1019.5
20220813070003 16 0 0.0 0.0 0.00 0.00 0.00 90 1019.5
20220813065804 16 0 0.0 0.0 0.00 0.00 0.00 89 1019.5
20220813065603 16 0 0.0 0.0 0.00 0.00 0.00 89 1019.6
20220813065403 16 0 0.0 0.0 0.00 0.00 0.00 89 1019.7
20220813065245 16 0 0.0 0.0 0.00 0.00 0.00 89 1019.7
20220813065024 16 0 0.0 0.0 0.00 0.00 0.00 89 1019.7
20220813064845 16 0 0.0 0.0 0.00 0.00 0.00 89 1019.7
20220813064624 16 0 0.0 0.0 0.00 0.00 0.00 88 1019.7
20220813064424 16 0 0.0 0.0 0.00 0.00 0.00 88 1019.7
20220813064246 16 0 0.0 0.0 0.00 0.00 0.00 88 1019.7
20220813064046 16 0 0.0 0.0 0.00 0.00 0.00 88 1019.8
20220813063824 16 0 0.0 0.0 0.00 0.00 0.00 88 1019.8
20220813063624 16 0 0.0 0.0 0.00 0.00 0.00 88 1019.9
20220813063424 16 0 0.0 0.0 0.00 0.00 0.00 88 1020.0
20220813063203 16 0 0.0 0.0 0.00 0.00 0.00 88 1020.1
20220813063045 16 0 0.0 0.0 0.00 0.00 0.00 88 1020.0
20220813062824 16 0 0.0 0.0 0.00 0.00 0.00 88 1020.0
20220813062624 16 0 0.0 0.0 0.00 0.00 0.00 87 1020.0
20220813062424 16 0 0.0 0.0 0.00 0.00 0.00 87 1020.0
20220813062225 16 0 0.0 0.0 0.00 0.00 0.00 87 1019.9
20220813062004 16 0 0.0 0.0 0.00 0.00 0.00 87 1020.0
20220813061846 16 0 0.0 0.0 0.00 0.00 0.00 87 1019.9
20220813061603 16 0 0.0 0.0 0.00 0.00 0.00 86 1020.0
20220813061403 17 0 0.0 0.0 0.00 0.00 0.00 86 1020.0
20220813061224 17 0 0.0 0.0 0.00 0.00 0.00 86 1019.9
20220813061045 17 0 0.0 0.0 0.00 0.00 0.00 86 1019.9
20220813060803 17 0 0.0 0.0 0.00 0.00 0.00 85 1019.8
20220813060603 17 0 0.0 0.0 0.00 0.00 0.00 85 1019.8
20220813060424 17 0 0.0 0.0 0.00 0.00 0.00 84 1019.9
20220813060245 17 0 0.0 0.0 0.00 0.00 0.00 84 1019.8
20220813060045 17 0 0.0 0.0 0.00 0.00 0.00 84 1019.8
20220813055825 17 0 0.0 0.0 0.00 0.00 0.00 84 1019.8
20220813055624 17 0 0.0 0.0 0.00 0.00 0.00 83 1019.8
20220813055425 17 0 0.0 0.0 0.00 0.00 0.00 83 1019.8
20220813055245 17 0 0.0 0.0 0.00 0.00 0.00 82 1019.8
20220813055003 17 0 0.0 0.0 0.00 0.00 0.00 82 1019.8
20220813054845 17 0 0.0 0.0 0.00 0.00 0.00 83 1019.8
20220813054603 18 0 0.0 0.0 0.00 0.00 0.00 82 1019.8
20220813054424 18 0 0.0 0.0 0.00 0.00 0.00 81 1019.9
20220813054203 18 0 0.0 0.0 0.00 0.00 0.00 81 1019.8
20220813054003 18 0 0.0 0.0 0.00 0.00 0.00 81 1019.9
20220813053824 18 0 0.0 0.0 0.00 0.00 0.00 81 1019.8
20220813053646 18 0 0.0 0.0 0.00 0.00 0.00 81 1019.9
20220813053445 18 0 0.0 0.0 0.00 0.00 0.00 81 1019.9
20220813053245 18 0 0.0 0.0 0.00 0.00 0.00 81 1019.9
20220813053025 18 0 0.0 0.0 0.00 0.00 0.00 81 1019.9
20220813052824 18 0 0.0 0.0 0.00 0.00 0.00 80 1020.0
20220813052624 18 0 0.0 0.0 0.00 0.00 0.00 80 1019.9
20220813052445 18 0 0.0 0.0 0.00 0.00 0.00 80 1019.9
20220813052224 18 0 0.0 0.0 0.00 0.00 0.00 79 1020.0
20220813052045 18 0 0.0 0.0 0.00 0.00 0.00 79 1019.9
20220813051845 18 0 0.0 0.0 0.00 0.00 0.00 79 1020.0
20220813051625 19 0 0.0 0.0 0.00 0.00 0.00 79 1020.0
20220813051446 19 312 0.0 1.6 0.00 0.00 0.00 79 1020.0
20220813051224 19 312 0.0 1.6 0.00 0.00 0.00 79 1020.0
20220813051025 19 304 0.0 1.6 0.00 0.00 0.00 79 1020.1
20220813050824 19 302 0.0 1.6 0.00 0.00 0.00 79 1020.0
20220813050603 19 302 0.0 1.6 0.00 0.00 0.00 79 1020.1
20220813050403 19 301 0.0 1.6 0.00 0.00 0.00 79 1020.0
20220813050224 19 293 0.0 1.6 0.00 0.00 0.00 79 1020.0
20220813050025 19 293 0.0 1.6 0.00 0.00 0.00 79 1020.0
20220813045845 19 292 0.0 1.6 0.00 0.00 0.00 78 1020.1
20220813045603 19 292 0.0 1.6 0.00 0.00 0.00 78 1020.0
20220813045424 19 292 0.0 1.6 0.00 0.00 0.00 78 1020.0
20220813045225 19 292 0.0 1.6 0.00 0.00 0.00 78 1020.0
20220813045004 19 292 0.0 3.2 0.00 0.00 0.00 78 1020.1
20220813044803 19 294 0.0 3.2 0.00 0.00 0.00 78 1020.1
20220813044645 20 312 0.0 4.8 0.00 0.00 0.00 78 1020.1
20220813044424 20 318 0.0 4.8 0.00 0.00 0.00 77 1020.2
20220813044224 20 319 0.0 4.8 0.00 0.00 0.00 77 1020.3
20220813044003 20 323 0.0 4.8 0.00 0.00 0.00 78 1020.3
20220813043845 20 325 0.0 4.8 0.00 0.00 0.00 78 1020.4
20220813043603 20 319 0.0 3.2 0.00 0.00 0.00 78 1020.3
20220813043403 20 326 0.0 3.2 0.00 0.00 0.00 78 1020.2
20220813043224 20 332 0.0 1.6 0.00 0.00 0.00 78 1020.2
20220813043004 19 333 0.0 1.6 0.00 0.00 0.00 78 1020.2
20220813042804 19 336 0.0 1.6 0.00 0.00 0.00 78 1020.3
20220813042645 20 340 0.0 1.6 0.00 0.00 0.00 78 1020.3
20220813042403 20 339 0.0 1.6 0.00 0.00 0.00 78 1020.2
20220813042224 20 339 0.0 1.6 0.00 0.00 0.00 78 1020.2
20220813042045 20 340 0.0 1.6 0.00 0.00 0.00 78 1020.1
20220813041824 20 340 0.0 1.6 0.00 0.00 0.00 77 1020.1
20220813041603 20 341 0.0 1.6 0.00 0.00 0.00 77 1020.1
20220813041403 20 341 0.0 1.6 0.00 0.00 0.00 77 1020.1
20220813041224 20 341 0.0 1.6 0.00 0.00 0.00 77 1020.1
20220813041045 20 342 0.0 1.6 0.00 0.00 0.00 77 1020.1
20220813040825 20 343 0.0 1.6 0.00 0.00 0.00 77 1020.1
20220813040646 20 344 0.0 1.6 0.00 0.00 0.00 77 1020.1
20220813040424 20 344 0.0 1.6 0.00 0.00 0.00 77 1020.0
20220813040224 20 344 0.0 1.6 0.00 0.00 0.00 77 1020.0
20220813040045 20 344 0.0 1.6 0.00 0.00 0.00 77 1020.0
20220813035824 20 344 0.0 1.6 0.00 0.00 0.00 77 1020.0
20220813035624 20 344 0.0 1.6 0.00 0.00 0.00 77 1020.0
20220813035403 20 344 0.0 1.6 0.00 0.00 0.00 77 1020.1
20220813035203 20 344 0.0 1.6 0.00 0.00 0.00 77 1020.0
20220813035003 20 344 0.0 1.6 0.00 0.00 0.00 76 1020.0
20220813034803 20 344 0.0 1.6 0.00 0.00 0.00 76 1020.0
20220813034604 20 344 0.0 1.6 0.00 0.00 0.00 76 1020.0
20220813034404 20 0 0.0 0.0 0.00 0.00 0.00 76 1020.0
20220813034246 20 0 0.0 0.0 0.00 0.00 0.00 76 1020.0
20220813034024 20 344 0.0 1.6 0.00 0.00 0.00 75 1020.0
20220813033803 20 344 0.0 1.6 0.00 0.00 0.00 75 1019.9
20220813033624 20 344 0.0 1.6 0.00 0.00 0.00 75 1019.9
20220813033424 20 343 0.0 1.6 0.00 0.00 0.00 75 1019.9
20220813033203 20 344 0.0 1.6 0.00 0.00 0.00 75 1019.9
20220813033003 21 344 0.0 1.6 0.00 0.00 0.00 75 1019.9
20220813032824 21 344 0.0 1.6 0.00 0.00 0.00 75 1019.9
20220813032603 21 344 0.0 1.6 0.00 0.00 0.00 74 1019.8
20220813032425 21 345 0.0 1.6 0.00 0.00 0.00 74 1019.8
20220813032204 21 346 0.0 1.6 0.00 0.00 0.00 74 1019.8
20220813032003 21 346 0.0 1.6 0.00 0.00 0.00 74 1019.7
20220813031804 21 341 0.0 1.6 0.00 0.00 0.00 74 1019.8
20220813031624 21 340 0.0 1.6 0.00 0.00 0.00 74 1019.8
20220813031403 21 338 0.0 1.6 0.00 0.00 0.00 74 1019.8
20220813031203 21 343 0.0 4.8 0.00 0.00 0.00 74 1019.8
20220813031003 21 341 0.0 4.8 0.00 0.00 0.00 74 1019.8
20220813030803 21 343 0.0 4.8 0.00 0.00 0.00 73 1019.8
20220813030603 21 343 0.0 4.8 0.00 0.00 0.00 73 1019.8
20220813030445 21 345 0.0 4.8 0.00 0.00 0.00 73 1019.8
20220813030225 21 329 0.0 1.6 0.00 0.00 0.00 73 1019.8
20220813030004 21 329 0.0 1.6 0.00 0.00 0.00 73 1019.8
20220813025825 21 329 0.0 1.6 0.00 0.00 0.00 73 1019.7
20220813025624 21 329 0.0 1.6 0.00 0.00 0.00 73 1019.7
20220813025424 21 329 0.0 1.6 0.00 0.00 0.00 73 1019.7
20220813025203 21 330 0.0 1.6 0.00 0.00 0.00 73 1019.7
20220813025003 21 331 0.0 1.6 0.00 0.00 0.00 73 1019.7
20220813024824 21 331 0.0 1.6 0.00 0.00 0.00 73 1019.7
20220813024645 21 331 0.0 1.6 0.00 0.00 0.00 73 1019.7
20220813024403 21 331 0.0 1.6 0.00 0.00 0.00 73 1019.7
20220813024224 21 0 0.0 0.0 0.00 0.00 0.00 73 1019.7
20220813024003 21 331 0.0 1.6 0.00 0.00 0.00 73 1019.8
20220813023804 21 331 0.0 1.6 0.00 0.00 0.00 73 1019.8
20220813023646 21 331 0.0 1.6 0.00 0.00 0.00 73 1019.8
20220813023425 21 331 0.0 1.6 0.00 0.00 0.00 72 1019.9
20220813023203 21 331 0.0 1.6 0.00 0.00 0.00 72 1019.9
20220813023025 22 331 1.6 1.6 0.00 0.00 0.00 72 1019.9
20220813022804 22 344 1.6 3.2 0.00 0.00 0.00 71 1019.9
20220813022603 22 336 1.6 4.8 0.00 0.00 0.00 71 1019.9
20220813022403 22 341 1.6 4.8 0.00 0.00 0.00 71 1019.8
20220813022224 22 340 1.6 4.8 0.00 0.00 0.00 71 1019.8
20220813022003 22 337 0.0 4.8 0.00 0.00 0.00 71 1019.8
20220813021803 22 331 0.0 4.8 0.00 0.00 0.00 71 1019.8
20220813021604 22 335 0.0 4.8 0.00 0.00 0.00 71 1019.8
20220813021404 22 317 0.0 4.8 0.00 0.00 0.00 71 1019.7
20220813021204 22 307 0.0 1.6 0.00 0.00 0.00 71 1019.6
20220813021004 22 320 0.0 1.6 0.00 0.00 0.00 71 1019.7
20220813020803 22 319 0.0 1.6 0.00 0.00 0.00 71 1019.6
20220813020624 22 318 0.0 1.6 0.00 0.00 0.00 71 1019.6
20220813020424 22 318 0.0 1.6 0.00 0.00 0.00 71 1019.6
20220813020203 22 320 0.0 1.6 0.00 0.00 0.00 71 1019.6
20220813020003 22 318 0.0 1.6 0.00 0.00 0.00 71 1019.6
20220813015824 22 320 0.0 3.2 0.00 0.00 0.00 71 1019.6
20220813015624 22 321 0.0 3.2 0.00 0.00 0.00 71 1019.5
20220813015446 22 321 0.0 3.2 0.00 0.00 0.00 71 1019.5
20220813015225 22 317 0.0 3.2 0.00 0.00 0.00 71 1019.4
20220813015004 22 315 0.0 3.2 0.00 0.00 0.00 71 1019.4
20220813014803 22 311 0.0 3.2 0.00 0.00 0.00 71 1019.4
20220813014603 22 306 0.0 3.2 0.00 0.00 0.00 71 1019.3
20220813014424 22 305 0.0 3.2 0.00 0.00 0.00 71 1019.3
20220813014224 22 304 0.0 1.6 0.00 0.00 0.00 71 1019.3
20220813014003 22 312 0.0 1.6 0.00 0.00 0.00 71 1019.2
20220813013824 22 315 0.0 1.6 0.00 0.00 0.00 71 1019.1
20220813013603 22 324 0.0 1.6 0.00 0.00 0.00 70 1019.2
20220813013403 22 330 0.0 3.2 0.00 0.00 0.00 70 1019.1
20220813013225 22 336 0.0 3.2 0.00 0.00 0.00 70 1019.2
20220813013025 22 342 0.0 3.2 0.00 0.00 0.00 70 1019.2
20220813012803 22 350 0.0 3.2 0.00 0.00 0.00 70 1019.2
20220813012624 22 348 1.6 3.2 0.00 0.00 0.00 70 1019.2
20220813012403 22 335 1.6 3.2 0.00 0.00 0.00 70 1019.2
20220813012245 22 322 1.6 3.2 0.00 0.00 0.00 70 1019.2
20220813012003 23 315 1.6 3.2 0.00 0.00 0.00 69 1019.3
20220813011803 23 307 1.6 3.2 0.00 0.00 0.00 69 1019.2
20220813011645 23 310 1.6 3.2 0.00 0.00 0.00 69 1019.3
20220813011403 23 320 1.6 6.4 0.00 0.00 0.00 69 1019.3
20220813011224 23 328 1.6 6.4 0.00 0.00 0.00 68 1019.2
20220813011004 23 327 1.6 6.4 0.00 0.00 0.00 68 1019.2
20220813010804 23 325 1.6 6.4 0.00 0.00 0.00 68 1019.2
20220813010604 23 322 1.6 6.4 0.00 0.00 0.00 68 1019.3
20220813010403 23 320 1.6 4.8 0.00 0.00 0.00 67 1019.2
20220813010245 23 319 1.6 4.8 0.00 0.00 0.00 68 1019.2
20220813010003 23 322 1.6 4.8 0.00 0.00 0.00 67 1019.2
20220813005845 23 324 1.6 4.8 0.00 0.00 0.00 67 1019.1
20220813005624 23 335 1.6 4.8 0.00 0.00 0.00 67 1019.2
20220813005424 23 339 1.6 4.8 0.00 0.00 0.00 67 1019.1
20220813005224 23 331 1.6 3.2 0.00 0.00 0.00 66 1019.2
20220813005003 23 332 1.6 4.8 0.00 0.00 0.00 66 1019.2
20220813004825 23 332 1.6 4.8 0.00 0.00 0.00 66 1019.2
20220813004646 23 332 1.6 4.8 0.00 0.00 0.00 66 1019.2
20220813004404 24 337 1.6 4.8 0.00 0.00 0.00 65 1019.2
20220813004246 24 344 1.6 4.8 0.00 0.00 0.00 65 1019.1
20220813004024 24 343 1.6 3.2 0.00 0.00 0.00 65 1019.1
20220813003803 24 340 1.6 3.2 0.00 0.00 0.00 65 1019.1
20220813003624 24 336 1.6 6.4 0.00 0.00 0.00 65 1019.1
20220813003403 24 333 1.6 6.4 0.00 0.00 0.00 65 1019.0
20220813003224 24 330 3.2 6.4 0.00 0.00 0.00 65 1019.0
20220813003003 24 329 3.2 6.4 0.00 0.00 0.00 65 1018.9
20220813002803 25 330 3.2 6.4 0.00 0.00 0.00 64 1018.9
20220813002604 25 330 3.2 6.4 0.00 0.00 0.00 64 1018.9
20220813002404 25 332 3.2 6.4 0.00 0.00 0.00 64 1018.9
20220813002225 25 335 1.6 6.4 0.00 0.00 0.00 64 1018.9
20220813002045 25 339 1.6 6.4 0.00 0.00 0.00 64 1018.9
20220813001803 25 339 1.6 6.4 0.00 0.00 0.00 64 1019.0
20220813001603 25 337 1.6 6.4 0.00 0.00 0.00 64 1018.9
20220813001403 25 336 1.6 6.4 0.00 0.00 0.00 64 1018.9
20220813001224 25 327 1.6 4.8 0.00 0.00 0.00 63 1018.9
20220813001045 25 318 1.6 4.8 0.00 0.00 0.00 63 1018.9
20220813000845 25 318 1.6 3.2 0.00 0.00 0.00 63 1018.9
20220813000603 25 320 1.6 4.8 0.00 0.00 0.00 62 1018.9
20220813000404 25 321 3.2 4.8 0.00 0.00 0.00 62 1018.9
20220813000204 25 329 3.2 6.4 0.00 0.00 0.00 62 1018.9
20220813000004 25 325 3.2 6.4 0.00 0.00 0.00 62 1018.9
20220812235803 25 329 3.2 6.4 0.00 0.00 0.00 62 1018.9
20220812235603 26 332 3.2 8.0 0.00 0.00 0.00 62 1018.8
20220812235403 26 336 3.2 9.7 0.00 0.00 0.00 61 1018.9
20220812235203 26 335 3.2 9.7 0.00 0.00 0.00 61 1018.8
20220812235024 26 336 3.2 9.7 0.00 0.00 0.00 61 1018.8
20220812234824 26 334 3.2 9.7 0.00 0.00 0.00 60 1018.8
20220812234603 26 333 1.6 9.7 0.00 0.00 0.00 59 1018.9
20220812234403 26 332 1.6 6.4 0.00 0.00 0.00 59 1018.9
20220812234246 26 333 1.6 6.4 0.00 0.00 0.00 58 1018.9
20220812234025 26 333 3.2 6.4 0.00 0.00 0.00 58 1018.9
20220812233846 26 335 3.2 6.4 0.00 0.00 0.00 60 1018.9
20220812233645 26 339 3.2 9.7 0.00 0.00 0.00 61 1018.9
20220812233404 26 335 3.2 9.7 0.00 0.00 0.00 60 1018.9
20220812233224 26 343 3.2 9.7 0.00 0.00 0.00 62 1018.9
20220812233024 26 343 3.2 9.7 0.00 0.00 0.00 59 1018.8
20220812232824 26 348 1.6 9.7 0.00 0.00 0.00 59 1018.8
20220812232603 26 349 1.6 9.7 0.00 0.00 0.00 59 1018.9
20220812232424 26 11 1.6 9.7 0.00 0.00 0.00 59 1018.9
20220812232245 26 14 1.6 8.0 0.00 0.00 0.00 59 1018.9
20220812232004 26 95 1.6 4.8 0.00 0.00 0.00 58 1018.9
20220812231804 27 65 3.2 9.7 0.00 0.00 0.00 59 1018.8
20220812231645 27 13 3.2 9.7 0.00 0.00 0.00 58 1018.8
20220812231403 27 338 3.2 9.7 0.00 0.00 0.00 58 1018.9
20220812231224 27 335 3.2 9.7 0.00 0.00 0.00 57 1019.0
20220812231003 27 340 3.2 9.7 0.00 0.00 0.00 57 1019.0
20220812230803 27 353 3.2 9.7 0.00 0.00 0.00 57 1018.9
20220812230603 27 3 3.2 9.7 0.00 0.00 0.00 56 1019.0
20220812230424 27 33 3.2 8.0 0.00 0.00 0.00 56 1019.0
20220812230224 27 28 3.2 8.0 0.00 0.00 0.00 57 1019.0
20220812230003 27 3 3.2 9.7 0.00 0.00 0.00 58 1018.9
20220812225804 27 344 4.8 9.7 0.00 0.00 0.00 57 1018.9
20220812225646 27 340 4.8 9.7 0.00 0.00 0.00 58 1018.9
20220812225404 27 327 4.8 9.7 0.00 0.00 0.00 56 1018.9
20220812225203 27 326 4.8 9.7 0.00 0.00 0.00 56 1019.0
20220812225003 27 333 3.2 9.7 0.00 0.00 0.00 56 1019.0
20220812224824 27 339 3.2 9.7 0.00 0.00 0.00 55 1019.0
20220812224603 27 337 3.2 9.7 0.00 0.00 0.00 57 1019.0
20220812224445 27 345 3.2 9.7 0.00 0.00 0.00 57 1019.1
20220812224224 27 355 3.2 8.0 0.00 0.00 0.00 59 1019.2
20220812224003 27 352 3.2 6.4 0.00 0.00 0.00 58 1019.2
20220812223803 27 353 3.2 6.4 0.00 0.00 0.00 60 1019.1
20220812223625 26 7 3.2 6.4 0.00 0.00 0.00 60 1019.1
20220812223404 26 349 4.8 14.5 0.00 0.00 0.00 60 1019.2
20220812223204 26 345 4.8 14.5 0.00 0.00 0.00 58 1019.1
20220812223046 26 345 4.8 14.5 0.00 0.00 0.00 59 1019.2
20220812222803 26 347 4.8 14.5 0.00 0.00 0.00 59 1019.1
20220812222624 27 340 4.8 14.5 0.00 0.00 0.00 58 1019.1
20220812222403 27 338 4.8 9.7 0.00 0.00 0.00 58 1019.1
20220812222203 27 339 3.2 9.7 0.00 0.00 0.00 59 1019.1
20220812222045 27 338 3.2 9.7 0.00 0.00 0.00 59 1019.1
20220812221824 27 329 3.2 9.7 0.00 0.00 0.00 59 1019.2
20220812221624 27 342 3.2 9.7 0.00 0.00 0.00 58 1019.1
20220812221404 27 343 3.2 9.7 0.00 0.00 0.00 58 1019.2
20220812221204 27 344 3.2 11.3 0.00 0.00 0.00 57 1019.2
20220812221025 27 336 3.2 11.3 0.00 0.00 0.00 56 1019.2
20220812220845 27 334 3.2 11.3 0.00 0.00 0.00 54 1019.2
20220812220624 27 336 3.2 11.3 0.00 0.00 0.00 55 1019.2
20220812220403 27 339 3.2 11.3 0.00 0.00 0.00 54 1019.2
20220812220245 27 342 3.2 9.7 0.00 0.00 0.00 54 1019.2
20220812220045 27 349 3.2 11.3 0.00 0.00 0.00 54 1019.2
20220812215803 27 354 3.2 11.3 0.00 0.00 0.00 53 1019.2
20220812215603 27 354 4.8 11.3 0.00 0.00 0.00 53 1019.0
20220812215403 27 350 4.8 12.9 0.00 0.00 0.00 53 1019.0
20220812215225 27 346 4.8 12.9 0.00 0.00 0.00 52 1019.1
20220812215004 27 337 4.8 12.9 0.00 0.00 0.00 56 1019.1
20220812214803 27 340 4.8 12.9 0.00 0.00 0.00 54 1019.1
20220812214603 27 344 4.8 12.9 0.00 0.00 0.00 54 1019.1
20220812214403 27 349 4.8 11.3 0.00 0.00 0.00 54 1019.2
20220812214203 27 339 4.8 12.9 0.00 0.00 0.00 54 1019.1
20220812214024 27 343 6.4 12.9 0.00 0.00 0.00 54 1019.1
20220812213845 27 353 6.4 12.9 0.00 0.00 0.00 57 1019.2
20220812213603 27 347 6.4 12.9 0.00 0.00 0.00 58 1019.1
20220812213445 27 341 6.4 14.5 0.00 0.00 0.00 57 1019.2
20220812213245 27 339 6.4 14.5 0.00 0.00 0.00 56 1019.2
20220812213004 27 344 6.4 14.5 0.00 0.00 0.00 56 1019.2
20220812212825 27 345 6.4 14.5 0.00 0.00 0.00 58 1019.2
20220812212604 27 347 6.4 14.5 0.00 0.00 0.00 57 1019.1
20220812212403 27 357 4.8 14.5 0.00 0.00 0.00 57 1019.1
20220812212203 27 4 4.8 14.5 0.00 0.00 0.00 59 1019.2
20220812212045 27 7 4.8 14.5 0.00 0.00 0.00 59 1019.3
20220812211824 27 7 4.8 12.9 0.00 0.00 0.00 58 1019.2
20220812211603 27 8 4.8 12.9 0.00 0.00 0.00 58 1019.3
20220812211424 27 1 4.8 12.9 0.00 0.00 0.00 59 1019.3
20220812211224 27 351 4.8 12.9 0.00 0.00 0.00 58 1019.2
20220812211003 27 346 4.8 12.9 0.00 0.00 0.00 57 1019.3
20220812210804 27 344 4.8 12.9 0.00 0.00 0.00 58 1019.3
20220812210646 27 343 4.8 12.9 0.00 0.00 0.00 59 1019.4
20220812210404 27 342 4.8 12.9 0.00 0.00 0.00 57 1019.3
20220812210224 27 343 4.8 12.9 0.00 0.00 0.00 58 1019.4
20220812210024 27 339 6.4 12.9 0.00 0.00 0.00 58 1019.4
20220812205803 27 339 6.4 12.9 0.00 0.00 0.00 55 1019.4
20220812205624 27 343 6.4 20.9 0.00 0.00 0.00 55 1019.3
20220812205445 28 354 6.4 20.9 0.00 0.00 0.00 55 1019.3
20220812205203 27 351 6.4 20.9 0.00 0.00 0.00 57 1019.4
20220812205045 28 343 6.4 20.9 0.00 0.00 0.00 56 1019.3
20220812204824 27 352 6.4 20.9 0.00 0.00 0.00 57 1019.4
20220812204625 27 348 6.4 20.9 0.00 0.00 0.00 58 1019.4
20220812204425 27 345 6.4 16.1 0.00 0.00 0.00 57 1019.3
20220812204203 27 352 6.4 16.1 0.00 0.00 0.00 58 1019.3
20220812204003 27 352 6.4 12.9 0.00 0.00 0.00 57 1019.3
20220812203824 27 353 6.4 12.9 0.00 0.00 0.00 57 1019.3
20220812203603 27 5 6.4 12.9 0.00 0.00 0.00 58 1019.3
20220812203403 27 1 6.4 12.9 0.00 0.00 0.00 59 1019.2
20220812203203 27 359 4.8 12.9 0.00 0.00 0.00 57 1019.2
20220812203045 27 2 4.8 12.9 0.00 0.00 0.00 58 1019.2
20220812202824 27 1 4.8 12.9 0.00 0.00 0.00 58 1019.2
20220812202603 27 355 3.2 11.3 0.00 0.00 0.00 59 1019.2
20220812202425 27 351 3.2 11.3 0.00 0.00 0.00 62 1019.1
20220812202204 27 352 3.2 11.3 0.00 0.00 0.00 60 1019.2
20220812202025 27 343 4.8 11.3 0.00 0.00 0.00 59 1019.2
20220812201803 27 340 4.8 8.0 0.00 0.00 0.00 58 1019.2
20220812201603 27 349 4.8 12.9 0.00 0.00 0.00 59 1019.2
20220812201424 27 352 4.8 12.9 0.00 0.00 0.00 58 1019.2
20220812201203 27 352 4.8 12.9 0.00 0.00 0.00 59 1019.3
20220812201003 27 2 4.8 12.9 0.00 0.00 0.00 59 1019.3
20220812200803 27 2 4.8 12.9 0.00 0.00 0.00 59 1019.3
20220812200624 27 6 4.8 11.3 0.00 0.00 0.00 60 1019.3
20220812200425 27 6 4.8 11.3 0.00 0.00 0.00 60 1019.4
20220812200246 27 355 4.8 12.9 0.00 0.00 0.00 59 1019.4
20220812200025 27 349 4.8 12.9 0.00 0.00 0.00 59 1019.4
20220812195803 27 339 4.8 12.9 0.00 0.00 0.00 57 1019.4
20220812195603 27 342 4.8 12.9 0.00 0.00 0.00 58 1019.4
20220812195445 27 344 4.8 12.9 0.00 0.00 0.00 57 1019.5
20220812195224 28 344 4.8 12.9 0.00 0.00 0.00 58 1019.5
20220812195024 28 352 4.8 12.9 0.00 0.00 0.00 58 1019.5
20220812194803 28 10 4.8 12.9 0.00 0.00 0.00 59 1019.5
20220812194624 28 11 4.8 12.9 0.00 0.00 0.00 59 1019.5
20220812194424 28 5 4.8 12.9 0.00 0.00 0.00 59 1019.5
20220812194225 28 7 4.8 12.9 0.00 0.00 0.00 57 1019.5
20220812194025 28 348 4.8 12.9 0.00 0.00 0.00 55 1019.4
20220812193804 28 352 3.2 12.9 0.00 0.00 0.00 56 1019.5
20220812193624 28 355 3.2 12.9 0.00 0.00 0.00 56 1019.5
20220812193403 28 7 3.2 12.9 0.00 0.00 0.00 54 1019.5
20220812193203 28 20 3.2 11.3 0.00 0.00 0.00 54 1019.6
20220812193024 28 15 4.8 12.9 0.00 0.00 0.00 55 1019.6
20220812192824 28 348 4.8 12.9 0.00 0.00 0.00 57 1019.6
20220812192645 28 334 4.8 12.9 0.00 0.00 0.00 58 1019.5
20220812192424 28 338 4.8 12.9 0.00 0.00 0.00 58 1019.6
20220812192224 28 343 4.8 12.9 0.00 0.00 0.00 56 1019.6
20220812192025 28 346 4.8 12.9 0.00 0.00 0.00 57 1019.6
20220812191825 28 356 4.8 11.3 0.00 0.00 0.00 56 1019.5
20220812191603 28 9 3.2 11.3 0.00 0.00 0.00 57 1019.6
20220812191425 28 28 3.2 11.3 0.00 0.00 0.00 56 1019.7
20220812191203 28 55 3.2 11.3 0.00 0.00 0.00 58 1019.7
20220812191024 28 91 4.8 9.7 0.00 0.00 0.00 57 1019.7
20220812190803 28 79 4.8 8.0 0.00 0.00 0.00 60 1019.7
20220812190624 28 50 4.8 8.0 0.00 0.00 0.00 57 1019.7
20220812190424 28 4 6.4 14.5 0.00 0.00 0.00 59 1019.7
20220812190203 28 356 6.4 14.5 0.00 0.00 0.00 57 1019.7
20220812190024 28 356 6.4 16.1 0.00 0.00 0.00 56 1019.7
20220812185804 28 349 4.8 16.1 0.00 0.00 0.00 57 1019.7
20220812185604 28 344 4.8 16.1 0.00 0.00 0.00 55 1019.9
20220812185403 28 337 4.8 16.1 0.00 0.00 0.00 55 1019.8
20220812185203 28 343 6.4 16.1 0.00 0.00 0.00 55 1019.9
20220812185003 28 333 6.4 16.1 0.00 0.00 0.00 59 1019.9
20220812184824 28 327 6.4 16.1 0.00 0.00 0.00 57 1019.9
20220812184624 28 338 6.4 16.1 0.00 0.00 0.00 59 1019.8
20220812184403 28 339 6.4 16.1 0.00 0.00 0.00 59 1019.8
20220812184203 28 338 6.4 16.1 0.00 0.00 0.00 58 1019.9
20220812184003 28 342 4.8 16.1 0.00 0.00 0.00 57 1019.9
20220812183803 28 350 4.8 16.1 0.00 0.00 0.00 58 1019.9
20220812183604 28 353 4.8 16.1 0.00 0.00 0.00 59 1019.9
20220812183404 28 1 4.8 16.1 0.00 0.00 0.00 60 1019.9
20220812183225 28 7 4.8 12.9 0.00 0.00 0.00 61 1019.9
20220812183003 28 4 4.8 12.9 0.00 0.00 0.00 61 1019.8
20220812182845 28 1 4.8 12.9 0.00 0.00 0.00 59 1019.9
20220812182603 28 349 4.8 12.9 0.00 0.00 0.00 58 1019.9
20220812182403 28 346 4.8 12.9 0.00 0.00 0.00 61 1019.9
20220812182224 28 347 4.8 12.9 0.00 0.00 0.00 59 1019.9
20220812182024 28 2 4.8 12.9 0.00 0.00 0.00 58 1019.9
20220812181803 28 5 4.8 12.9 0.00 0.00 0.00 59 1019.9
20220812181603 28 8 4.8 12.9 0.00 0.00 0.00 64 1019.9
20220812181403 28 17 4.8 12.9 0.00 0.00 0.00 64 1019.9
20220812181225 27 7 4.8 12.9 0.00 0.00 0.00 62 1019.9
20220812181004 27 343 6.4 12.9 0.00 0.00 0.00 60 1019.9
20220812180804 27 343 6.4 16.1 0.00 0.00 0.00 62 1019.9
20220812180603 27 350 6.4 16.1 0.00 0.00 0.00 61 1019.9
20220812180424 27 347 4.8 16.1 0.00 0.00 0.00 61 1020.0
20220812180224 28 339 4.8 16.1 0.00 0.00 0.00 61 1020.1
20220812180024 27 349 3.2 16.1 0.00 0.00 0.00 62 1020.2
20220812175803 28 356 3.2 11.3 0.00 0.00 0.00 61 1020.2
20220812175603 27 344 3.2 11.3 0.00 0.00 0.00 59 1020.2
20220812175424 28 338 3.2 11.3 0.00 0.00 0.00 59 1020.2
20220812175204 27 348 3.2 11.3 0.00 0.00 0.00 59 1020.2
20220812175004 27 345 3.2 9.7 0.00 0.00 0.00 63 1020.2
20220812174804 27 342 4.8 9.7 0.00 0.00 0.00 61 1020.2
20220812174645 27 347 4.8 9.7 0.00 0.00 0.00 60 1020.2
20220812174424 28 348 4.8 12.9 0.00 0.00 0.00 61 1020.2
20220812174203 28 345 4.8 12.9 0.00 0.00 0.00 62 1020.1
20220812174003 27 336 4.8 12.9 0.00 0.00 0.00 63 1020.1
20220812173803 27 341 4.8 12.9 0.00 0.00 0.00 64 1020.1
20220812173603 27 338 4.8 12.9 0.00 0.00 0.00 62 1020.1
20220812173403 27 345 4.8 12.9 0.00 0.00 0.00 65 1020.1
20220812173204 27 341 4.8 12.9 0.00 0.00 0.00 64 1020.1
20220812173004 27 351 3.2 12.9 0.00 0.00 0.00 63 1020.1
20220812172825 28 355 3.2 12.9 0.00 0.00 0.00 62 1020.1
20220812172646 28 10 3.2 12.9 0.00 0.00 0.00 61 1020.1
20220812172425 28 17 3.2 12.9 0.00 0.00 0.00 64 1020.1
20220812172203 28 9 3.2 12.9 0.00 0.00 0.00 60 1020.1
20220812172003 28 3 3.2 11.3 0.00 0.00 0.00 64 1020.1
20220812171824 28 16 3.2 11.3 0.00 0.00 0.00 64 1020.1
20220812171645 28 348 3.2 11.3 0.00 0.00 0.00 63 1020.1
20220812171403 28 328 3.2 11.3 0.00 0.00 0.00 64 1020.1
20220812171203 28 330 3.2 11.3 0.00 0.00 0.00 68 1020.0
20220812171025 28 330 3.2 11.3 0.00 0.00 0.00 65 1020.1
20220812170804 28 329 3.2 11.3 0.00 0.00 0.00 64 1020.0
20220812170603 28 1 3.2 9.7 0.00 0.00 0.00 64 1020.1
20220812170424 28 53 3.2 9.7 0.00 0.00 0.00 64 1020.0
20220812170203 28 89 3.2 8.0 0.00 0.00 0.00 63 1020.0
20220812170003 28 96 3.2 8.0 0.00 0.00 0.00 63 1020.0
20220812165803 28 94 3.2 8.0 0.00 0.00 0.00 66 1020.1
20220812165603 28 107 3.2 8.0 0.00 0.00 0.00 65 1020.1
20220812165403 28 111 3.2 8.0 0.00 0.00 0.00 62 1020.1
20220812165224 28 20 3.2 9.7 0.00 0.00 0.00 63 1020.1
20220812165004 28 336 3.2 11.3 0.00 0.00 0.00 64 1020.1
20220812164825 28 346 3.2 11.3 0.00 0.00 0.00 63 1020.1
20220812164604 28 341 3.2 11.3 0.00 0.00 0.00 68 1020.1
20220812164425 27 336 3.2 11.3 0.00 0.00 0.00 63 1020.2
20220812164246 27 336 3.2 11.3 0.00 0.00 0.00 66 1020.1
20220812164024 27 350 3.2 11.3 0.00 0.00 0.00 65 1020.1